Regional Weather Roundup
Issued by NWS

Home | Current Version | Previous Version | Graphics & Text | Print | Product List | Glossary On
Versions: 1 2 3 4 5 6 7 8 9 10 11 12 13 14 15 16 17 18 19 20 21 22 23 24 25 26 27 28 29 30 31 32 33 34 35 36 37 38 39 40 41 42 43 44 45 46 47 48 49 50
000
ASUS43 KMPX 250110
RWRMN
WEATHER ROUNDUP FOR MINNESOTA
NATIONAL WEATHER SERVICE TWIN CITIES/CHANHASSEN MN
800 PM CDT SUN MAY 24 2015


NOTE: "FAIR" INDICATES FEW OR NO CLOUDS BELOW 12,000 FEET WITH NO
SIGNIFICANT WEATHER AND/OR OBSTRUCTIONS TO VISIBILITY. N/A MEANS
CURRENT SKY AND/OR WEATHER CONDITIONS ARE NOT AVAILABLE.

MNZ060>063-068>070-250200-
   Twin Cities Metro

CITY           SKY/WX    TMP DP  RH WIND       PRES   REMARKS
TWIN CITIES    DRIZZLE   60  58  92 E10       29.85F
ST PAUL        LGT RAIN  59  58  96 E7        29.87S FOG
CRYSTAL        LGT RAIN  60  58  92 E8        29.85F FOG
BLAINE         DRIZZLE   61  61 100 E7        29.87F
LAKEVILLE      DRIZZLE   57  57 100 E8        29.84F
EDEN PRAIRIE   LGT RAIN  59  57  93 E8        29.84F FOG
SOUTH ST PAUL  DRIZZLE   59  58  95 E6        29.86F
LAKE ELMO      DRIZZLE   59  59 100 E9        29.87F
$$
MNZ001>005-007-008-013>017-022>024-027-028-250200-
   Northwest Minnesota

CITY           SKY/WX    TMP DP  RH WIND       PRES   REMARKS
BEMIDJI        CLOUDY    66  50  55 SE5       29.92F
HALLOCK        CLOUDY    75  39  27 CALM      29.89F
ROSEAU         CLOUDY    73  48  40 SW6       29.91S
WARROAD        CLOUDY    72  52  49 CALM      29.91F
THIEF RVR FALL CLOUDY    70  46  43 SE10      29.92S
CROOKSTON      CLOUDY    72  48  43 SE8       29.91S
FOSSTON        CLOUDY    64  48  55 CALM      29.93F
DETROIT LAKES  LGT RAIN  64  54  68 SE6       29.92S
MOORHEAD       CLOUDY    68  54  60 CALM      29.90S
PARK RAPIDS    CLOUDY    64  53  67 E5        29.92F
MAHNOMEN       MOCLDY    66  51  59 E5        29.91S
$$
MNZ006-009>011-018-025>026-250200-
   North Central Minnesota

CITY           SKY/WX    TMP DP  RH WIND       PRES   REMARKS
BAUDETTE       CLOUDY    71  47  42 SW3       29.91F
FLAG ISLAND    CLOUDY    66  45  45 S3        29.90F
INTL FALLS     CLOUDY    68  49  50 CALM      29.91F
WASKISH        CLOUDY    66  57  72 CALM      29.93S
BIG FORK       CLOUDY    66  52  59 S3        29.94F
LONGVILLE      CLOUDY    64  52  63 SE3       29.93F
GRAND RAPIDS   CLOUDY    61  54  77 CALM      29.94F
CRANE LAKE     CLOUDY    68  46  45 CALM      29.93S
COOK           CLOUDY    70  50  49 CALM      29.94F
WALKER         CLOUDY    64  49  57 CALM      29.92F
$$
MNZ012-019>021-037-250200-
   Northeast Minnesota

CITY           SKY/WX    TMP DP  RH WIND       PRES   REMARKS
DULUTH         LGT RAIN  63  54  72 S12       29.95S
ELY            CLOUDY    68  45  42 SW3       29.94S
HIBBING        CLOUDY    65  49  56 CALM      29.94F
EVELETH        CLOUDY    64  50  59 CALM      29.95S
DULUTH HARBOR  DRIZZLE   64  57  77 S6        29.95S
TWO HARBORS    CLOUDY    64  50  59 CALM      29.94S
GRAND MARAIS     N/A     53  43  68 SE7       29.92F
G MARAIS ARPRT CLOUDY    63  39  42 CALM      29.97F
$$
MNZ029>031-032-039>041-046>048-054>057-064-250200-
   West Central Minnesota

CITY           SKY/WX    TMP DP  RH WIND       PRES   REMARKS
FERGUS FALLS   CLOUDY    63  54  72 E10       29.89F
WHEATON        RAIN      57  55  94 NE7       29.89F
MORRIS         DRIZZLE   61  57  88 E9        29.86S
ALEXANDRIA     LGT RAIN  58  56  93 E12       29.89F FOG
ELBOW LAKE     DRIZZLE   58  57  95 NE8       29.88F
WADENA         DRIZZLE   59  54  82 NE6       29.91F
GLENWOOD       CLOUDY    57  55  94 E14       29.88F
APPLETON       DRIZZLE   61  57  88 E9        29.84F
BENSON         DRIZZLE   61  55  82 E3        29.85F
ORTONVILLE     DRIZZLE   59  57  94 E8        29.85F
MADISON        CLOUDY    59  57  94 E9        29.84F
WILLMAR        RAIN      61  57  88 E10       29.86F
$$
MNZ033>034-036-042>043-049>051-058-059-250200-
   Central Minnesota

CITY           SKY/WX    TMP DP  RH WIND       PRES   REMARKS
ST CLOUD       LGT RAIN  58  57  97 E7        29.87F FOG
SAUK CENTRE    LGT RAIN  58  56  95 NE9G18    29.88F
PAYNESVILLE    RAIN      56  55  99 N6        29.87F
AITKIN         DRIZZLE   63  54  72 E5        29.92S
PINE RIVER     DRIZZLE   61  54  77 CALM      29.96F
BRAINERD       LGT RAIN  60  56  86 E5        29.92F FOG
STAPLES        DRIZZLE   61  54  77 NE3       29.91F
LONG PRAIRIE   DRIZZLE   57  55  94 NE12      29.90S
LITTLE FALLS   LGT RAIN  59  55  88 NE5       29.90F
LITCHFIELD     DRIZZLE   59  59 100 E8        29.85F
BUFFALO        DRIZZLE   59  56  92 NE9       29.87S
MAPLE LAKE     DRIZZLE   60  58  96 E12G17    29.87F
$$
MNZ037-044-045-052-053-250200-
   East Central Minnesota

CITY           SKY/WX    TMP DP  RH WIND       PRES   REMARKS
PRINCETON      RAIN      61  57  88 NE7       29.88F
MORA           RAIN      55  54  94 E5        29.92F
CAMBRIDGE      RAIN      61  54  77 E5        29.88S
RUSH CITY      LGT RAIN  59  57  95 NE7       29.90F
MOOSE LAKE     LGT RAIN  59  55  88 E3        29.93F
HINCKLEY       DRIZZLE   59  57  94 E6        29.92F
CLOQUET        RAIN      61  54  77 SE3       29.96S
MCGREGOR       CLOUDY    61  54  77 SE5       29.95S
$$
MNZ071>073-080-081-089-090-097-098-250200-
   Southwest Minnesota

CITY           SKY/WX    TMP DP  RH WIND       PRES   REMARKS
MONTEVIDEO     LGT RAIN  59  59 100 SE12      29.84F
GRANITE FALLS  DRIZZLE   58  57  96 NE8       29.84F
CANBY          RAIN      59  57  96 E9        29.84S
MARSHALL       CLOUDY    59  54  82 E12       29.81S
REDWOOD FALLS  LGT RAIN  60  58  92 E8        29.81F FOG
OLIVIA         DRIZZLE   57  55  94 E7        29.82F
PIPESTONE      CLOUDY    59  57  94 E5        29.80F
WINDOM         DRIZZLE   59  57  94 NE8       29.79F
WORTHINGTON    CLOUDY    59  57  94 NE9       29.79F
JACKSON        DRIZZLE   61  61 100 NE7       29.79S
TRACY          DRIZZLE   60  59  98 E8        29.81F
SLAYTON        DRIZZLE   58  58 100 CALM      29.81F
$$
MNZ065>067-074>077-082>085-091>093-250200-
   South Central Minnesota

CITY           SKY/WX    TMP DP  RH WIND       PRES   REMARKS
MANKATO        CLOUDY    59  57  94 E10       29.81F
NEW ULM        DRIZZLE   59  59 100 E10       29.80F
ST JAMES       DRIZZLE   61  61 100 NE10      29.80F
FAIRMONT       CLOUDY    61  55  82 E7        29.78F
GLENCOE        DRIZZLE   59  59  99 NE8       29.83F
FARIBAULT      DRIZZLE   59  57  94 NE7       29.83F
OWATONNA       DRIZZLE   59  57  94 E9        29.82F
WASECA         RAIN      59  55  88 E10       29.82S
ALBERT LEA     CLOUDY    61  61 100 SE7       29.80F FOG
$$
MNZ078>079-086>088-094>096-250200-
   Southeast Minnesota

CITY           SKY/WX    TMP DP  RH WIND       PRES   REMARKS
ROCHESTER      CLOUDY    59  58  96 SE13      29.85F FOG
RED WING       DRIZZLE   57  57 100 E9        29.84F
STANTON        DRIZZLE   59  57  91 E9        29.83F
DODGE CENTER   DRIZZLE   59  57  94 E9        29.83F
WINONA         LGT RAIN  59  57  94 SE6       29.86F
AUSTIN         LGT RAIN  61  59  94 SE8       29.81F
PRESTON        CLOUDY    58  57  96 SE7       29.86R FOG
$$
ABBREVIATIONS USED IN REMARKS
   TC - TEMPERATURES IN CELSIUS
  WCI - WIND CHILL INDEX
   HX - HEAT INDEX
  VSB - VISIBILITY
$$



USA.gov is the U.S. government's official web portal to all federal, state and local government web resources and services.